Погода Сырдарья

Погода Сырдарья : погода сейчас, прогноз погоды и архив. Всё, что Вы хотите узнать о погоде Сырдарья!

Поиск расширенной информации на нашем сайте:

Другие новости

Новости СМИ2

Главная страница сайта

Новости сайта

03.07.2017

Напоминаем, что на нашем специализированном сайте Метеоцентр.Азия вы можете получить высокодетализированные автоматические прогнозы погоды по пунктам России, СНГ и мира в авиационном формате (включающие направление и скорость ветра, видимость, явления погоды, количество и форму облачности, нижнюю и верхнюю границу облачности).


Погода Сырдарья - сегодня

Время (UTC), дата Ветер
(°,м/с) 
Видим.   Явления Облачность Т
(°С)
Тd
(°С)
f(%) Тe
(°С)
Pmin
(гПа)
dP
(гПа)
Po
(мм)
O2
(г/м3)
Тmin Tmax R s Состояние
почвы
00 19.11.17 320 (СЗ) 10 км    6/0 средняя, верхняя 
[Ac lent|Ci fib]
+1.9 -0.9 82 +1  1035.5  0.4  752  301           
03 19.11.17 340 (С) 10 км    3/0 средняя 
[Ac lent]
+1 -1.6 83 1036.3  5.8  758  304           
06 19.11.17 320 (СЗ) 10 км    ясно 
+4.9 +0.2 72 +5  1035.9  0.1  752  298  +0.8         
09 19.11.17 270 (З) 10 км    ясно 
+8.1 -5 39 +9  1033.4  -2.1  751  294           
12 19.11.17 270 (З) 10 км    ясно 
+7.9 -3 46 +9  1032.9  -0.6  750  294           
15 19.11.17 230 (ЮЗ) 10 км    ясно 
+3.1 -2 69 +4  1032.4  -1  750  299    +9.6       
18 19.11.17 200 (Ю) 10 км    ясно 
+0.6 -2.3 81 +1  1032.1  -0.6  749  301    +9.6       
21 19.11.17 тихо ()   10 км    ясно 
-0.6 -2.7 86 -1  1031.1  -1.1  748  302           
00 20.11.17 тихо ()   10 км    ясно 
-2 -4.3 84 -2  1030.7  -0.6  748  304           
03 20.11.17 тихо ()   0500 м    ясно 
-2.6 -2.9 98 -3  1030.7  0.2  758  309           
06 20.11.17 тихо ()   2000 м  дымка{туман}  ясно 
+6.7 +0 62 +7  1029.9  0.3  748  294  -3.3         
09 20.11.17 340 (С) 10 км    ясно 
+12.1 +1.3 48 +13  1027.1  -2  747  288           
12 20.11.17 320 (СЗ) 10 км    ясно 
+11.5 -0.2 44 +13  1026.7  -0.6  746  288           
15 20.11.17 тихо ()   10 км    ясно 
+5 +1.2 76 +5  1027.4  0.1  746  295    +14.2       
18 20.11.17 230 (ЮЗ) 10 км    ясно 
+0.9 -0.8 88 +2  1027.3  -0.6  746  300    +14.2       
21 20.11.17 тихо ()   10 км    ясно 
-0.2 -1.7 90 -0  1026.8  -0.8  745  301           
00 21.11.17 020 (С) 2000 м  дымка  ясно 
-1 -2.2 92 1026.4  -0.5  745  301           
03 21.11.17 070 (В) 4000 м  дымка  ясно 
-1.2 -3 88 -1  1026.5  3.8  758  307           
06 21.11.17 290 (З) 10 км    ясно 
+10 +2.3 59 +11  1024.8  -0.3  745  289  -2.6         
09 21.11.17 020 (С) 10 км    ясно 
+14.6 -3.3 29 +15  1022.4  -1.8  743  285           
12 21.11.17 320 (СЗ) 10 км    ясно 
+13.2 -0.5 39 +14  1022.2  -0.3  743  286           
15 21.11.17 тихо ()   10 км    ясно 
+4.3 -1.8 64 +4  1022.9  -0.4  743  295    +15.6       
18 21.11.17 тихо ()   10 км    ясно 
+1.3 -2.5 76 +1  1022.4  -0.8  742  298    +15.6       
21 21.11.17 050 (СВ) 10 км    ясно 
+0.8 -1.8 83 +1  1020.9  -1.5  741  298           
00 22.11.17 340 (С) 10 км    ясно 
-1.3 -4.2 81 -1  1020.3  -0.9  740  300           
Время (UTC), дата Ветер
(°,м/с) 
Видим.   Явления Облачность Т
(°С)
Тd
(°С)
f(%) Тe
(°С)
Pmin
(гПа)
dP
(гПа)
Po
(мм)
O2
(г/м3)
Тmin Tmax R s Состояние
почвы

Для получения пояснительной информации подведите курсор к названию столбца.

ПОГОДА Сырдарья - архив

Всё, что Вы хотите узнать о погоде Сырдарья - удобно и подробно!

Выберите нужную дату (начиная с 1 января 2015* года) и нажмите кнопку "Найти".
Будут отображены архивные сводки погоды по пункту Сырдарья, начиная с указанной даты.


Отображать данные в формате CSV (для использования в таблицах Excel)


Внимание! Наш архив погоды предназначен исключительно для личного некоммерческого использования в познавательных целях. Если Вам необходимы официальные справки о состоянии погоды (для производственных, юридических, коммерческих и т.п. целей), обращайтесь в органы Росгидромета.

*Примечание: данная дата относится к архиву по метеостанциям СССР (Россия, СНГ, Балтия).
Архив по метеостанциям Зарубежной Европы и Азии (кроме Китая) хранится 10 дней, по другим регионам земного шара (Китай, Африка, Америка, Австралия, Океания) - 1 день.

Сырдарья - район местоположения метеостанции


Название, широта, долгота, высота метеостанции:
Сырдарья 40.8°ш. 68.7°д. 264 м над ур. моря [Узбекистан]

Дополнительная информация

В oтличие oт бoльшинства пoгoдных сайтoв мы публикуем пoдрoбную метеoинфoрмацию в детальнoм прoфессиoнальнoм фoрмате.

Характеристики температуры и влажнoсти вoздуха измеряются на высoте 2 м в тени вдали oт зданий и деревьев.
Скoрoсть ветра измеряется на высoте 10 м (на урoвне рoста челoвека скoрoсть ветра ниже в 1.5-2 раза). Если метеoстанция нахoдится в гoрoде или в лесу, тo скoрoсть ветра занижена на 2-4 м/с пo сравнению с oткрытым местoм. Скoрoсть ветра над акватoриями крупных рек и oзёр, а также на вершинах хoлмoв на 2-5 м/с выше, чем в oбычных услoвиях.
Атмoсфернoе давление в разных тoчках местнoсти мoжет значительнo oтличаться oт давления на метеoстанции, в зависимoсти oт услoвий рельефа (при пoдъёме на 10 м давление пoнижается примернo на 1 мм рт.ст.).